Terminal Aerodrome Forecast
Issued by NWS

Home | Current Version | Previous Version | Text Only | Print | Product List | Glossary On
Versions: 1 2 3 4 5 6 7 8 9 10 11 12 13 14 15 16 17
375
FTUS44 KCRP 011305 AAA
TAFALI
TAF AMD
KALI 011305Z 0113/0212 06004KT 3SM BR SCT008 OVC020
     FM011500 08008KT 6SM HZ BKN012 OVC025
     FM012000 09010KT P6SM BKN030
     FM020200 10008KT 5SM HZ BKN015
     FM020500 06006KT 4SM BR OVC015
      TEMPO 0205/0209 2SM TSRA OVC012CB
     FM020900 02012KT 5SM -SHRA OVC008=

USA.gov is the U.S. government's official web portal to all federal, state and local government web resources and services.